User: anonymous   Login
Location: Unspecified
(0.0000°N, 0.0000°E)
Time: 00:59:01
(UTC+00:00)
Language:

Kosmos-2230 - Orbit

View from above orbital plane
View from above orbital plane
View from above satellite
View from above satellite

Ground track
Ground track

The orbit data is extracted from the following two-line orbital elements,

1 22307U 93001A   18015.69074865  .00000047  00000-0  33589-4 0  9990
2 22307  82.9397  41.3954 0026013  82.9010  55.2313 13.73556626245286
Epoch (UTC): 15 January 2018 16:34:40
Eccentricity: 0.0026013
inclination: 82.9397°
perigee height: 967 km
apogee height: 1006 km
right ascension of ascending node: 41.3954°
argument of perigee: 82.9010°
revolutions per day: 13.73556626
mean anomaly at epoch: 55.2313°
orbit number at epoch: 24528

The dashed part of the orbit path shows where the satellite is in the earth's shadow,  

DLR